Find Starlink 11465

NORAD ID: 62057 Int'l Des: 2024-217 Owner: SPXS Country: US Constellation: starlink operational
LEOCIRCULAR

現在のビュー

3D地球を読み込み中...

About Starlink 11465

Starlink 11465 (NORAD 62057) is a starlink constellation satellite (v2 mini d2c) launched Nov 24, 2024 by SPXS of US. It operates in LEO, CIRCULAR orbit with a mass of 960.00 kg.

Starlink 11465について

説明を読み込み中...

次回通過

Passes for default location (London). Set your location on the main map for personalized predictions.

高度履歴

Loading altitude history...

軌道要素

1 62057U 24217A 26168.50597524 .00197919 00000-0 15940-2 0 9993
2 62057 53.1570 298.9926 0001448 140.9633 219.1489 15.69798018 90851
Epoch: Jun 17, 2026 • Age: 15 hours

現在のステータス

高度 375.1 km
速度 7.68 km/s
衛星直下点 -45.58°S, 67.29°W
打ち上げ日 Nov 24, 2024
運用期間 1.5 years
タイプ internet

技術仕様

分類 Payload
質量 960.00 kg
乾燥質量 910.00 kg
総質量 960.00 kg
長さ 0.30 m
直径 4.10 m
スパン 29.00 m
形状 Box + pan
製造者 SPXS
バスタイプ Starlink V2MD
フェーズステータス In Orbit
所有者/国 SPXS/US

Most Searched